Overview Statistics Trail Chart Weather Telemetry Raw packets
 

This is the latest recevied weather packets stored in our database for station/object DB0NLS-15. If no packets are shown the sender has not sent any weather packets the latest 10 day(s).

<< 39 40 41 42 43 44 45 >>
Time Temp. Humidity Pressure Rain* Wind** Luminosity Snow
1788000657 22.22° C 51% 1002.8 hPa 0 mm - - -
1788000054 22.22° C 52% 1002.8 hPa 0 mm - - -
1787999451 21.67° C 50% 1003 hPa 0 mm - - -
1787998848 21.11° C 52% 1003 hPa 0 mm - - -
1787998245 21.11° C 52% 1003.1 hPa 0 mm - - -
1787997651 21.11° C 51% 1003.1 hPa 0 mm - - -
1787997039 21.67° C 53% 1003.1 hPa 0 mm - - -
1787996436 21.11° C 54% 1003.1 hPa 0 mm - - -
1787995833 20.56° C 56% 1003.1 hPa 0 mm - - -
1787995231 20.56° C 56% 1003 hPa 0 mm - - -
1787994628 20.56° C 58% 1003.2 hPa 0 mm - - -
1787994025 20° C 59% 1003 hPa 0 mm - - -
1787993422 20° C 58% 1002.9 hPa 0 mm - - -
1787992819 20° C 59% 1003 hPa 0 mm - - -
1787992216 20.56° C 58% 1003 hPa 0 mm - - -
1787991674 20° C 59% 1002.9 hPa 0 mm - - -
1787991071 19.44° C 60% 1002.9 hPa 0 mm - - -
1787990468 19.44° C 62% 1002.9 hPa 0 mm - - -
1787989865 18.89° C 64% 1002.7 hPa 0 mm - - -
1787989274 18.89° C 65% 1002.6 hPa 0 mm - - -
1787988658 18.89° C 66% 1002.6 hPa 0 mm - - -
1787988055 18.89° C 66% 1002.7 hPa 0 mm - - -
1787987452 18.89° C 66% 1002.5 hPa 0 mm - - -
1787986849 18.89° C 68% 1002.5 hPa 0 mm - - -
1787986246 18.89° C 70% 1002.3 hPa 0 mm - - -

* Rain latest hour (hover to see other rain measurements)
** Current wind speed in m/s (hover to see current wind gust speed)